Date,TemperatureHighF,TemperatureAvgF,TemperatureLowF,DewpointHighF,DewpointAvgF,DewpointLowF,HumidityHigh,HumidityAvg,HumidityLow,PressureMaxIn,PressureMinIn,WindSpeedMaxMPH,WindSpeedAvgMPH,GustSpeedMaxMPH,PrecipitationSumIn
2012-1-1,82.0,72.1,56.8,68.0,58.5,53.8,97,65,40,29.82,29.72,14,6,19,0.00
2012-1-2,84.9,74.5,62.1,65.3,62.1,58.5,94,67,43,29.83,29.75,17,7,24,0.00
2012-1-3,87.1,76.6,62.8,67.7,63.6,58.5,87,66,45,29.83,29.70,15,7,19,0.00
2012-1-4,100.8,79.7,68.4,72.6,67.1,56.0,92,68,31,29.77,29.57,19,7,31,0.00
2012-1-5,81.9,74.5,70.5,71.2,66.9,63.0,92,78,60,29.81,29.63,14,8,22,0.00
2012-1-6,75.7,69.8,64.2,70.0,63.8,57.2,95,82,59,29.80,29.58,17,8,24,0.00
2012-1-7,80.8,71.5,58.5,62.4,59.5,56.1,97,68,48,29.78,29.60,18,7,23,0.00
2012-1-8,90.5,79.5,67.1,75.5,68.6,62.3,91,71,52,29.60,29.30,14,5,19,0.00
2012-1-9,89.1,77.9,73.4,75.3,70.6,66.0,100,79,57,29.60,29.36,14,7,20,0.00
2012-1-10,85.3,75.4,67.8,71.6,65.2,55.4,100,73,41,29.60,29.47,11,4,14,0.00
2012-1-11,91.2,77.0,67.6,66.6,49.2,34.2,90,44,15,29.59,29.31,18,10,30,0.00
2012-1-12,74.7,68.4,60.8,53.7,47.3,37.5,69,47,33,29.78,29.60,19,9,24,0.00
2012-1-13,82.8,70.8,57.4,62.5,57.1,52.5,90,64,40,29.79,29.67,13,6,19,0.00
2012-1-14,78.8,72.6,68.4,67.2,64.7,60.6,92,76,61,29.77,29.67,16,9,21,0.00
2012-1-15,80.1,72.1,65.5,68.3,65.0,60.6,100,79,59,29.91,29.73,14,8,21,0.00
2012-1-16,82.8,73.5,65.1,70.3,62.7,58.1,100,72,48,29.97,29.85,17,8,25,0.00
2012-1-17,83.1,74.4,63.7,68.5,63.2,57.7,92,70,44,29.96,29.86,14,7,21,0.00
2012-1-18,85.5,76.4,68.9,72.1,69.0,67.0,95,79,56,29.88,29.66,10,5,14,0.00
2012-1-19,83.7,76.7,69.6,71.6,69.9,67.5,97,80,61,29.80,29.67,16,7,20,0.00
2012-1-20,83.5,76.2,70.5,70.5,67.8,65.6,91,76,57,29.79,29.68,12,6,17,0.00
2012-1-21,84.9,75.8,69.6,70.4,66.9,63.0,93,75,55,29.81,29.67,13,6,17,0.00
2012-1-22,80.4,74.7,71.4,67.4,63.4,59.1,87,68,55,29.91,29.76,20,14,27,0.00
2012-1-23,80.6,74.0,67.5,67.3,63.5,60.1,96,70,55,29.93,29.82,19,12,29,0.00
2012-1-24,79.7,74.0,68.9,72.9,67.8,60.3,93,81,64,29.83,29.68,12,6,17,0.00
2012-1-25,77.4,72.9,69.4,73.1,70.8,67.7,97,93,81,29.71,29.62,14,6,24,0.00
2012-1-26,81.5,74.9,69.4,72.4,70.0,68.0,100,85,65,29.74,29.60,13,6,21,0.00
2012-1-27,86.0,77.0,70.0,72.5,68.7,66.5,94,77,53,29.79,29.71,16,7,29,0.00
2012-1-28,85.1,75.9,70.3,72.2,69.4,65.7,100,82,55,29.75,29.62,14,6,21,0.00
2012-1-29,85.5,77.2,71.6,71.7,69.2,66.3,89,77,53,29.65,29.47,20,9,37,0.00
2012-1-30,93.7,82.2,72.1,76.3,71.2,69.1,96,72,46,29.46,29.26,17,9,31,0.00
2012-1-31,91.8,78.3,69.3,74.1,70.6,61.9,94,78,52,29.65,29.31,14,8,22,0.00
2012-2-1,69.1,66.7,64.4,67.1,65.4,62.6,100,96,90,29.69,29.60,14,7,18,0.00
2012-2-2,69.3,65.7,63.1,69.0,64.5,60.0,100,96,78,29.63,29.45,15,9,25,0.00
2012-2-3,78.6,69.1,63.7,69.5,66.4,62.8,100,92,71,29.48,29.38,8,4,10,0.00
2012-2-4,83.1,73.6,68.0,68.8,67.3,65.6,100,82,58,29.43,29.36,9,4,11,0.00
2012-2-5,84.9,74.9,64.2,70.2,67.4,63.4,100,79,56,29.41,29.27,12,4,15,0.00
2012-2-6,85.5,74.0,67.6,72.2,68.6,66.6,100,84,62,29.44,29.24,20,8,28,0.00
2012-2-7,72.9,70.5,69.1,70.0,68.9,66.6,100,95,84,29.52,29.40,12,8,21,0.00
2012-2-8,80.4,74.2,68.7,67.5,64.7,62.4,92,73,59,29.67,29.51,14,9,19,0.00
2012-2-9,83.5,75.7,67.5,71.5,65.4,62.7,97,72,51,29.68,29.61,17,7,24,0.00
2012-2-10,85.1,72.1,64.2,69.0,65.4,63.4,100,81,54,29.66,29.54,15,7,21,0.00
2012-2-11,82.4,70.6,65.1,70.2,65.1,61.2,100,84,52,29.65,29.54,13,5,17,0.00
2012-2-12,83.1,72.2,59.0,66.5,63.1,58.5,100,75,51,29.78,29.63,11,5,15,0.00
2012-2-13,81.9,72.7,64.8,70.6,67.0,60.2,97,83,63,29.85,29.72,14,5,22,0.00
2012-2-14,81.7,70.6,60.8,66.8,62.7,59.3,100,78,51,29.91,29.83,12,6,17,0.00
2012-2-15,83.5,73.3,66.0,69.5,64.2,58.8,100,76,46,29.93,29.84,11,5,15,0.00
2012-2-16,83.8,74.1,62.4,69.0,63.0,59.5,97,71,46,29.88,29.79,15,6,20,0.00
2012-2-17,86.0,73.7,61.2,68.3,64.6,60.1,100,75,48,29.82,29.72,15,5,19,0.46
2012-2-18,82.4,74.9,67.5,71.0,68.6,66.0,97,81,64,29.82,29.72,11,5,14,0.07
2012-2-19,87.4,77.2,67.6,70.6,68.8,64.8,97,77,53,29.82,29.62,11,5,15,0.04
2012-2-20,85.5,75.1,68.9,73.9,69.8,65.3,100,85,55,29.69,29.56,14,6,21,0.37
2012-2-21,78.3,71.0,66.4,69.8,67.2,62.1,100,88,65,29.68,29.50,15,8,21,0.60
2012-2-22,79.2,71.3,65.5,67.0,65.1,63.0,97,82,63,29.82,29.64,12,7,18,0.17
2012-2-23,85.3,73.9,62.2,68.2,65.3,61.9,100,77,52,29.91,29.80,9,4,12,0.01
2012-2-24,85.6,74.9,62.8,74.6,67.3,61.9,100,79,55,30.01,29.87,14,5,20,0.01
2012-2-25,84.0,74.9,64.2,70.8,67.2,63.4,100,78,54,30.01,29.88,17,7,21,0.02
2012-2-26,87.8,77.6,71.2,69.3,67.0,64.3,89,71,50,29.94,29.80,10,6,15,0.04
2012-2-27,90.0,78.4,70.5,71.8,67.0,64.4,85,69,47,29.82,29.72,10,4,14,0.05
2012-2-28,94.8,81.8,72.0,72.7,69.6,66.5,92,69,41,29.73,29.61,12,5,17,0.02
2012-2-29,79.7,75.3,71.8,73.5,70.9,69.0,95,86,74,29.70,29.61,12,7,17,0.07
2012-3-1,97.0,80.8,71.2,74.7,70.4,63.2,100,75,34,29.64,29.34,17,6,26,0.02
2012-3-2,77.4,67.9,65.3,74.3,66.5,63.1,100,95,87,29.84,29.45,18,9,24,1.65
2012-3-3,72.5,69.2,64.4,67.5,64.4,61.7,100,85,70,29.86,29.78,15,6,25,0.22
2012-3-4,94.1,78.6,68.4,74.2,68.6,64.1,96,73,45,29.79,29.57,11,6,17,0.09
2012-3-5,80.4,73.8,69.3,74.5,67.3,59.3,100,81,50,29.80,29.57,16,6,21,0.04
2012-3-6,78.3,71.2,64.6,64.7,62.8,61.1,96,75,60,29.82,29.75,17,9,24,0.05
2012-3-7,73.8,65.0,59.9,64.1,61.0,58.0,100,88,63,29.81,29.66,16,9,31,2.92
2012-3-8,79.7,64.6,59.5,65.7,60.4,56.5,100,87,57,29.65,29.45,19,6,29,0.43
2012-3-9,87.8,71.5,60.4,63.5,59.6,55.5,97,69,39,29.61,29.50,11,5,24,0.08
2012-3-10,86.0,71.4,60.3,69.0,62.2,55.5,100,76,40,29.80,29.59,14,5,19,0.05
2012-3-11,81.1,73.4,63.3,65.5,62.7,56.6,90,70,44,29.85,29.75,8,5,12,0.01
2012-3-12,82.4,72.6,64.4,68.2,63.0,58.1,97,74,49,29.92,29.79,15,6,21,0.00
2012-3-13,82.4,73.2,62.6,67.3,62.5,59.3,93,71,46,29.94,29.84,15,6,18,0.05
2012-3-14,83.8,74.3,63.0,69.1,66.2,62.1,100,77,53,29.88,29.76,11,5,15,0.07
2012-3-15,86.0,75.6,65.8,70.6,67.4,64.4,96,77,54,29.80,29.68,13,6,20,0.00
2012-3-16,90.0,77.1,65.3,69.7,67.7,65.0,100,75,44,29.68,29.55,12,5,17,0.00
2012-3-17,73.8,70.6,68.2,70.7,67.2,64.8,100,89,80,29.82,29.57,14,6,23,0.34
2012-3-18,77.0,70.9,64.6,65.7,62.1,59.0,92,74,63,29.94,29.82,18,10,26,0.08
2012-3-19,77.0,71.3,66.6,67.4,63.2,57.0,97,76,61,29.95,29.86,18,11,24,0.15
2012-3-20,80.2,73.0,65.8,66.4,63.4,60.0,94,73,51,29.88,29.71,11,6,16,0.08
2012-3-21,83.1,74.5,67.8,70.6,67.3,65.0,94,79,57,29.68,29.40,9,5,13,0.00
2012-3-22,80.4,70.5,67.5,69.5,66.2,64.6,100,87,65,29.56,29.39,16,7,29,0.09
2012-3-23,87.8,75.2,66.6,68.2,58.3,42.1,100,62,23,29.51,29.32,20,6,30,0.05
2012-3-24,81.9,67.6,55.8,52.5,45.3,39.3,68,46,22,29.80,29.54,11,6,18,0.02
2012-3-25,77.5,69.7,59.9,60.7,55.5,48.9,78,61,49,29.95,29.81,11,6,16,0.01
2012-3-26,79.7,70.5,63.5,65.0,60.9,58.0,87,72,55,29.97,29.88,12,6,17,0.01
2012-3-27,82.0,71.3,62.2,65.5,61.4,58.1,90,72,48,29.98,29.90,12,5,18,0.00
2012-3-28,83.8,72.8,65.5,65.7,62.5,59.2,93,72,46,29.98,29.84,14,5,21,0.02
2012-3-29,85.8,71.0,59.9,64.9,61.7,58.8,97,74,44,29.87,29.75,10,3,14,0.04
2012-3-30,79.5,69.9,61.3,67.9,64.0,61.4,100,83,59,29.84,29.76,10,4,14,0.00
2012-3-31,83.7,70.3,58.5,65.6,62.6,58.2,100,79,49,29.83,29.76,12,3,18,0.01
2012-4-1,88.0,70.8,58.6,65.3,60.3,51.6,100,74,29,29.82,29.72,7,4,14,0.01
2012-4-2,86.0,71.6,61.3,66.7,62.9,59.7,95,75,47,29.80,29.70,10,3,13,0.06
2012-4-3,89.4,73.0,59.7,68.0,63.2,59.5,100,75,39,29.75,29.68,9,4,12,0.04
2012-4-4,83.3,73.6,62.8,69.9,65.2,61.9,100,77,51,29.83,29.70,13,6,19,0.00
2012-4-5,82.4,73.5,63.9,66.5,62.6,60.1,94,70,50,29.92,29.81,13,5,19,0.07
2012-4-6,82.8,72.4,59.7,70.0,60.6,56.6,97,69,43,29.91,29.78,11,5,15,0.00
2012-4-7,90.7,72.3,61.3,68.1,63.1,59.8,96,75,38,29.87,29.69,18,8,30,0.01
2012-4-8,83.8,74.2,66.6,70.9,66.6,60.5,100,78,58,29.87,29.64,15,6,20,0.25
2012-4-9,79.3,69.3,59.9,66.4,49.2,39.5,95,52,28,29.79,29.67,11,6,17,0.00
2012-4-10,67.6,60.9,54.7,55.4,46.9,38.7,87,61,46,30.09,29.82,21,13,30,0.06
2012-4-11,68.4,59.8,54.7,61.1,52.8,45.6,100,79,61,30.19,30.06,18,8,24,0.78
2012-4-12,77.5,64.4,56.7,60.7,58.1,55.1,100,81,49,30.22,30.15,11,5,15,0.02
2012-4-13,80.2,66.6,54.1,63.6,58.9,53.3,100,79,46,30.21,30.11,8,3,11,0.00
2012-4-14,84.2,69.0,57.0,66.8,61.8,56.8,100,80,43,30.11,29.98,12,4,18,0.01
2012-4-15,79.2,69.4,61.7,67.7,64.7,60.9,100,86,62,30.01,29.92,7,2,9,0.07
2012-4-16,78.1,69.4,63.0,68.8,65.2,61.6,100,88,62,29.96,29.88,14,5,23,0.79
2012-4-17,67.8,65.5,63.9,67.3,64.7,63.0,100,97,92,29.92,29.83,11,6,20,0.96
2012-4-18,71.4,66.5,63.5,68.9,65.7,62.7,100,97,86,29.86,29.76,6,2,10,1.18
2012-4-19,81.7,70.5,62.6,71.3,66.7,61.8,99,89,64,29.84,29.71,8,3,14,0.22
2012-4-20,91.0,72.5,64.2,70.7,67.3,62.7,100,85,39,29.76,29.69,14,4,19,0.01
2012-4-21,82.6,70.9,63.5,70.6,66.6,62.7,100,87,63,29.72,29.64,14,3,24,0.00
2012-4-22,78.6,68.4,60.3,68.8,65.1,60.0,100,90,67,29.71,29.60,8,3,13,0.01
2012-4-23,69.6,66.9,64.6,68.5,66.2,64.3,100,98,89,29.71,29.60,7,3,12,0.30
2012-4-24,81.1,67.2,58.1,65.2,57.8,42.6,100,75,36,29.68,29.53,15,5,21,0.02
2012-4-25,70.2,60.4,52.5,45.2,43.0,41.1,69,54,39,29.67,29.53,29,10,46,0.05
2012-4-26,75.2,64.0,55.0,54.8,49.9,43.4,83,61,43,29.85,29.68,17,8,30,0.00
2012-4-27,77.5,63.7,52.9,60.2,56.4,52.8,100,79,49,29.94,29.80,7,3,10,0.02
2012-4-28,68.2,62.5,57.7,61.3,59.4,57.3,100,90,77,29.93,29.79,8,3,10,0.04
2012-4-29,73.4,63.4,53.2,61.8,55.2,49.4,100,77,49,29.98,29.78,19,8,25,0.01
2012-4-30,74.8,62.1,55.4,58.6,54.2,51.2,93,76,45,30.06,29.97,5,3,8,0.01
2012-5-1,79.5,64.3,51.4,60.7,56.1,51.2,100,77,46,30.06,29.95,14,5,23,0.02
2012-5-2,82.4,65.7,53.6,63.6,58.5,52.8,100,80,42,29.98,29.81,8,4,11,0.01
2012-5-3,82.2,65.4,59.2,63.1,59.7,56.3,100,83,44,29.85,29.78,6,3,11,0.07
2012-5-4,74.7,64.0,55.6,60.2,56.3,53.8,99,78,50,29.86,29.75,10,3,14,0.00
2012-5-5,74.7,62.3,56.7,57.3,52.2,46.7,85,70,50,29.76,29.63,14,7,21,0.00
2012-5-6,75.0,59.9,50.5,51.6,46.5,38.8,97,66,27,29.77,29.69,12,5,19,0.00
2012-5-7,71.6,57.6,49.1,50.7,47.4,44.2,86,70,41,29.81,29.71,7,3,11,0.00
2012-5-8,78.6,60.5,47.3,51.1,48.7,45.8,100,69,33,29.82,29.72,9,4,18,0.00
2012-5-9,82.8,64.4,51.8,54.9,49.2,45.1,92,61,31,29.89,29.79,9,5,11,0.00
2012-5-10,89.6,68.3,55.9,60.7,53.2,48.1,91,63,27,29.92,29.84,10,5,14,0.00
2012-5-11,86.4,68.2,55.9,55.8,50.4,42.9,91,58,23,29.85,29.69,11,5,16,0.00
2012-5-12,77.2,63.5,53.8,54.4,49.6,44.6,88,63,40,29.77,29.66,12,4,19,0.01
2012-5-13,69.3,58.1,48.4,43.1,39.1,35.6,67,50,32,29.76,29.61,19,9,27,0.00
2012-5-14,67.6,57.0,47.1,46.0,41.8,38.1,75,58,40,29.95,29.77,12,6,17,0.00
2012-5-15,73.4,56.8,44.4,50.8,45.1,41.0,92,68,38,29.96,29.89,8,4,13,0.00
2012-5-16,71.6,57.8,48.4,53.9,49.9,47.0,97,77,45,29.98,29.91,8,4,13,0.01
2012-5-17,73.9,57.5,45.0,56.2,50.9,44.2,100,81,49,29.98,29.90,7,2,11,0.00
2012-5-18,79.9,59.7,46.2,56.4,51.2,45.1,100,78,32,29.98,29.89,16,3,21,0.00
2012-5-19,77.0,58.2,48.4,51.8,45.6,39.6,100,68,28,29.94,29.86,10,5,17,0.02
2012-5-20,69.8,56.8,45.3,58.5,51.2,42.6,95,83,60,30.01,29.92,12,4,17,0.05
2012-5-21,72.9,59.4,48.9,59.2,54.5,48.7,100,86,50,30.00,29.91,6,3,9,0.01
2012-5-22,76.3,59.9,50.2,55.1,46.7,38.0,100,67,28,29.97,29.88,11,4,18,0.02
2012-5-23,75.7,58.6,45.7,48.8,43.0,35.4,84,60,24,29.99,29.87,10,5,15,0.02
2012-5-24,62.8,54.0,45.1,56.4,48.4,42.1,100,82,58,29.91,29.73,9,3,11,0.07
2012-5-25,63.7,58.2,53.8,58.8,49.5,38.0,100,76,43,29.69,29.58,18,8,28,0.08
2012-5-26,67.3,57.3,51.6,45.7,42.4,39.3,72,58,42,29.76,29.60,21,11,33,0.01
2012-5-27,69.4,58.0,48.2,53.7,47.1,43.9,92,69,41,29.92,29.75,13,5,19,0.04
2012-5-28,68.0,60.4,54.3,54.9,51.4,48.6,97,73,52,30.07,29.91,15,8,21,0.02
2012-5-29,69.3,59.3,55.0,59.8,56.9,54.2,100,93,63,30.21,30.06,9,6,19,0.25
2012-5-30,70.2,61.0,55.2,60.3,55.1,49.5,99,82,53,30.26,30.20,10,4,17,0.08
2012-5-31,75.2,63.1,56.5,57.6,53.8,50.7,95,74,43,30.23,30.13,7,2,11,0.01
2012-6-1,66.4,59.6,54.3,61.7,58.2,53.5,100,95,79,30.12,29.99,8,3,12,0.14
2012-6-2,68.7,62.3,56.5,62.6,60.1,56.2,100,93,77,29.96,29.75,4,2,7,0.13
2012-6-3,61.7,60.2,59.2,61.7,60.0,58.9,100,99,99,29.72,29.50,6,2,9,0.48
2012-6-4,72.0,61.2,54.3,60.8,55.2,41.2,100,82,56,29.46,29.27,14,6,24,0.19
2012-6-5,64.2,55.2,49.5,57.2,43.3,38.5,100,66,45,29.42,29.23,21,11,30,0.45
2012-6-6,64.2,58.0,52.3,55.2,52.4,46.5,100,82,60,29.83,29.44,23,14,35,0.52
2012-6-7,61.5,53.7,47.5,54.1,50.9,47.1,100,91,67,29.94,29.82,12,6,16,0.27
2012-6-8,71.8,54.7,44.1,50.0,44.8,40.4,99,73,32,29.99,29.92,6,3,9,0.00
2012-6-9,72.0,52.4,41.4,50.7,45.5,41.1,100,81,35,30.01,29.92,8,2,11,0.00
2012-6-10,66.9,54.0,44.8,55.5,50.4,44.0,100,89,65,29.98,29.89,10,4,15,0.00
2012-6-11,65.7,57.7,53.8,60.5,55.3,51.6,100,93,69,29.90,29.76,17,8,29,1.59
2012-6-12,70.5,62.4,57.2,57.8,55.3,50.9,100,79,52,29.81,29.74,17,10,28,0.25
2012-6-13,68.7,59.2,55.4,61.1,57.2,55.1,100,93,69,29.83,29.77,11,5,19,0.48
2012-6-14,72.5,57.2,50.5,61.4,54.1,50.3,100,90,60,29.81,29.72,7,2,11,0.05
2012-6-15,75.6,58.9,47.8,56.5,52.3,47.6,100,82,47,29.77,29.67,10,5,13,0.01
2012-6-16,63.5,56.8,51.3,56.8,53.2,47.7,97,88,71,29.78,29.66,7,2,11,0.05
2012-6-17,69.8,58.4,51.1,54.7,48.0,42.1,97,71,39,29.83,29.70,14,7,20,0.00
2012-6-18,72.9,58.4,50.5,48.5,45.2,36.6,89,65,29,29.89,29.80,10,4,14,0.00
2012-6-19,70.3,57.0,46.9,49.2,45.3,42.2,85,66,45,29.89,29.76,15,6,22,0.00
2012-6-20,67.1,55.3,44.6,47.9,45.8,43.1,97,73,42,29.90,29.76,11,5,16,0.00
2012-6-21,70.0,57.1,48.6,49.8,44.3,41.0,83,64,37,29.74,29.55,17,9,24,0.00
2012-6-22,69.3,55.3,48.0,49.6,46.6,42.9,91,74,42,29.68,29.46,20,6,28,0.00
2012-6-23,66.2,54.0,46.4,45.1,42.7,39.2,88,68,41,30.00,29.72,11,6,17,0.00
2012-6-24,64.0,51.7,42.6,42.4,39.2,37.0,82,64,39,30.10,30.00,12,5,18,0.00
2012-6-25,69.1,53.3,40.8,46.6,42.4,40.0,100,70,37,30.09,29.95,12,5,18,0.04
2012-6-26,59.7,57.2,45.9,57.8,49.5,42.5,100,77,61,30.15,30.02,10,6,17,0.35
2012-6-27,65.1,57.3,51.6,56.2,51.5,45.7,100,82,59,30.15,30.06,10,4,14,0.18
2012-6-28,73.0,58.2,53.8,60.3,55.1,53.0,100,90,53,30.03,29.81,9,3,11,0.09
2012-6-29,68.2,57.5,50.0,57.5,54.7,49.7,100,91,67,29.79,29.59,9,4,19,0.01
2012-6-30,72.7,59.6,50.0,54.7,49.6,38.7,100,74,30,29.67,29.59,10,5,17,0.00
2012-7-1,65.3,57.2,53.6,46.7,42.0,31.4,76,59,32,29.72,29.66,15,5,25,0.00
2012-7-2,60.1,60.1,60.1,36.3,36.3,36.3,41,41,41,29.67,29.67,11,11,14,0.00
2012-7-3,60.1,60.1,60.1,36.3,36.3,36.3,41,41,41,29.67,29.67,11,11,14,0.00
2012-7-4,60.1,60.1,60.1,36.3,36.3,36.3,41,41,41,29.67,29.67,11,11,14,0.00
2012-7-5,60.1,58.9,51.6,48.8,38.2,36.3,90,48,41,30.15,29.67,11,10,17,0.05
2012-7-6,62.1,54.0,50.5,55.5,52.1,50.3,100,94,72,30.19,30.12,13,6,17,0.87
2012-7-7,65.8,56.2,47.8,55.1,51.4,47.6,100,85,60,30.17,30.12,10,4,13,0.13
2012-7-8,71.8,55.0,45.5,55.5,50.1,44.7,100,86,50,30.15,30.07,8,2,9,0.01
2012-7-9,70.5,53.6,41.9,58.0,49.2,41.6,100,87,58,30.16,30.01,9,3,14,0.06
2012-7-10,74.1,63.0,54.1,56.2,53.8,50.1,91,73,44,30.03,29.83,14,7,22,0.00
2012-7-11,71.8,60.8,55.2,57.1,55.3,53.2,100,83,54,29.86,29.77,12,6,17,0.11
2012-7-12,60.3,56.2,51.6,59.5,55.6,51.4,100,98,93,29.81,29.62,9,3,14,0.09
2012-7-13,63.7,58.1,53.8,62.3,57.5,53.0,100,98,93,29.65,29.52,8,4,14,0.22
2012-7-14,69.4,60.3,50.4,60.4,50.4,41.4,100,73,38,29.68,29.54,15,6,24,0.00
2012-7-15,66.9,56.3,49.6,46.9,44.5,41.7,87,66,43,29.91,29.65,15,7,23,0.00
2012-7-16,75.4,54.7,44.8,47.5,42.3,38.0,93,65,33,30.06,29.94,12,6,17,0.00
2012-7-17,73.0,55.1,43.3,48.7,45.1,39.5,100,74,31,30.04,29.91,8,4,15,0.00
2012-7-18,72.5,57.4,46.9,53.9,49.2,46.1,100,77,40,29.87,29.69,10,4,17,0.06
2012-7-19,63.0,53.9,43.7,51.2,46.0,41.7,97,76,56,29.89,29.73,18,7,26,0.06
2012-7-20,65.5,56.4,47.3,50.2,45.1,39.9,81,67,51,30.01,29.88,13,7,20,0.00
2012-7-21,65.7,58.3,54.7,54.0,49.5,43.8,92,74,47,30.09,29.98,22,11,29,0.04
2012-7-22,64.0,56.1,52.0,56.0,52.1,46.9,100,87,66,30.06,30.01,17,9,22,0.38
2012-7-23,67.1,58.4,54.3,56.5,51.6,45.3,96,79,58,30.06,29.99,14,7,22,0.24
2012-7-24,66.4,56.2,49.8,56.4,53.6,49.6,100,92,67,30.05,29.97,7,2,9,0.06
2012-7-25,70.9,56.1,46.2,54.2,50.2,45.4,100,83,43,29.96,29.80,9,4,14,0.00
2012-7-26,68.9,56.3,46.0,52.7,49.7,45.2,100,81,51,29.79,29.59,8,4,14,0.00
2012-7-27,69.3,56.4,48.9,52.2,44.9,38.0,93,69,32,29.63,29.54,13,4,22,0.00
2012-7-28,65.1,52.2,45.1,44.6,42.2,39.7,89,70,42,29.81,29.62,14,6,21,0.00
2012-7-29,65.8,54.9,45.1,46.6,42.7,39.2,82,65,44,29.90,29.80,12,6,17,0.01
2012-7-30,62.1,54.8,46.6,45.9,38.9,30.8,89,58,32,29.95,29.86,19,9,29,0.01
2012-7-31,62.4,53.3,47.8,47.6,43.5,41.0,92,71,50,29.96,29.88,15,7,21,0.13
2012-8-1,64.8,52.7,41.4,43.2,41.2,38.7,95,67,41,29.89,29.79,9,5,15,0.02
2012-8-2,67.3,54.3,45.5,42.2,39.1,31.1,86,59,29,29.87,29.78,10,5,15,0.01
2012-8-3,72.3,54.1,43.0,43.6,38.8,35.5,88,59,29,29.78,29.67,10,5,16,0.00
2012-8-4,74.3,57.5,46.8,46.7,39.8,34.8,80,55,24,29.76,29.68,12,5,16,0.00
2012-8-5,73.0,57.5,45.5,41.0,38.0,30.2,77,51,21,29.74,29.61,21,5,36,0.04
2012-8-6,71.8,60.2,52.5,40.7,32.4,15.8,59,38,15,29.86,29.62,16,7,24,0.05
2012-8-7,68.0,55.7,42.4,37.0,34.3,30.9,76,47,25,29.96,29.87,10,5,18,0.00
2012-8-8,59.9,59.9,59.9,33.6,33.6,33.6,37,37,37,29.89,29.89,3,3,5,0.00
2012-8-9,60.1,59.5,54.1,33.6,32.6,24.3,38,36,26,29.89,29.60,16,4,30,0.01
2012-8-10,60.3,52.6,45.9,51.1,38.8,28.3,100,62,39,29.80,29.60,28,14,43,0.56
2012-8-11,60.3,53.4,47.8,53.7,48.7,41.5,97,85,70,29.85,29.75,22,13,37,0.71
2012-8-12,60.1,54.7,51.6,53.8,51.1,47.3,100,88,65,29.99,29.83,20,11,32,0.48
2012-8-13,68.2,56.5,48.6,51.0,49.0,46.6,100,77,48,30.01,29.88,10,5,14,0.01
2012-8-14,70.7,56.0,41.9,48.1,43.8,38.9,100,68,33,29.88,29.76,12,4,18,0.00
2012-8-15,73.9,61.4,49.8,43.8,39.5,34.9,79,47,26,29.78,29.60,14,5,25,0.00
2012-8-16,74.1,58.3,46.0,47.6,42.7,37.4,86,59,28,29.66,29.56,8,2,11,0.00
2012-8-17,74.1,57.1,41.5,48.1,39.3,23.7,96,60,16,29.61,29.33,29,8,35,0.15
2012-8-18,63.5,56.5,50.4,43.9,38.5,32.8,71,51,42,29.68,29.42,27,15,44,0.15
2012-8-19,72.3,57.8,49.6,47.8,45.0,40.8,85,65,32,29.88,29.71,11,6,17,0.00
2012-8-20,68.4,56.2,42.8,53.2,46.7,40.2,100,74,41,29.95,29.80,9,3,13,0.00
2012-8-21,77.2,59.6,47.3,50.7,39.4,20.6,100,57,22,29.85,29.71,13,6,18,0.01
2012-8-22,81.0,63.8,52.0,42.9,28.3,18.2,26,26,26,29.73,29.57,11,5,19,0.01
2012-8-23,89.8,69.9,54.9,61.9,38.0,20.6,97,36,18,29.65,29.41,23,7,35,0.21
2012-8-24,70.0,63.4,54.9,59.0,38.9,26.9,93,45,20,29.76,29.51,18,10,27,0.12
2012-8-25,75.6,59.6,48.9,46.3,39.6,33.7,79,49,25,29.79,29.70,12,4,17,0.00
2012-8-26,69.8,56.8,44.6,46.1,40.1,36.1,82,56,29,29.85,29.74,11,4,15,0.00
2012-8-27,70.3,58.7,45.0,50.4,45.4,40.5,87,63,39,29.97,29.87,12,4,15,0.18
2012-8-28,75.0,57.9,44.6,51.0,41.8,27.9,100,62,32,29.95,29.83,12,5,18,0.00
2012-8-29,77.0,61.8,47.1,55.9,37.7,18.8,77,43,31,29.84,29.56,9,5,16,0.00
2012-8-30,77.5,66.2,54.1,55.1,42.3,27.7,91,48,21,29.72,29.47,20,8,29,0.00
2012-8-31,71.6,57.4,45.5,45.4,34.5,28.4,69,44,20,29.81,29.64,16,6,24,0.00
2012-9-1,55.6,52.5,43.7,31.3,29.6,24.3,48,41,39,29.86,29.79,10,8,14,0.00
2012-9-2,55.6,55.6,55.6,31.0,31.0,31.0,39,39,39,29.86,29.86,10,10,12,0.00
2012-9-3,59.4,55.7,53.4,48.2,32.4,31.0,74,42,39,29.90,29.86,10,9,12,0.11
2012-9-4,80.6,59.8,43.2,57.2,45.3,32.9,100,66,18,29.91,29.83,10,4,13,0.00
2012-9-5,84.0,66.4,47.7,46.6,40.9,33.2,92,46,17,29.81,29.50,17,8,25,0.02
2012-9-6,84.6,74.1,60.4,48.1,41.9,31.6,62,33,16,29.53,29.42,24,12,37,0.01
2012-9-7,78.3,65.5,54.0,44.4,35.0,22.0,65,35,17,29.62,29.40,20,9,34,0.05
2012-9-8,75.2,62.7,54.0,41.1,37.1,33.1,52,40,23,29.79,29.61,17,10,23,0.00
2012-9-9,72.0,61.2,52.0,52.4,44.4,37.6,87,56,30,29.98,29.76,16,5,19,0.00
2012-9-10,77.4,61.7,45.7,55.6,50.0,38.0,100,70,26,30.00,29.84,10,4,15,0.02
2012-9-11,72.9,62.8,51.8,60.4,56.3,49.1,94,80,60,29.98,29.87,14,5,20,0.01
2012-9-12,76.5,65.5,54.7,62.8,59.2,53.9,100,82,55,29.96,29.69,11,4,14,0.00
2012-9-13,82.0,63.9,54.3,58.9,47.8,34.0,100,62,25,29.66,29.37,22,8,26,0.33
2012-9-14,68.2,56.7,46.0,43.8,35.3,26.4,77,46,26,29.84,29.68,12,5,19,0.05
2012-9-15,69.6,58.0,41.9,55.4,48.1,40.6,100,72,48,29.98,29.83,14,5,18,0.05
2012-9-16,73.6,61.3,47.7,60.2,53.1,47.4,100,77,45,29.97,29.73,15,5,20,0.00
2012-9-17,71.4,61.0,51.4,61.1,56.8,51.2,100,87,63,29.81,29.72,13,5,17,0.11
2012-9-18,79.5,62.8,51.1,61.0,46.4,28.0,100,61,34,29.81,29.65,14,5,18,0.12
2012-9-19,72.5,62.3,52.0,42.6,33.6,24.5,34,34,34,29.77,29.64,11,5,14,0.04
2012-9-20,75.7,63.3,51.4,45.4,34.4,24.0,34,34,34,29.81,29.68,12,4,16,0.00
2012-9-21,87.4,68.1,57.2,60.8,44.9,29.1,95,47,30,29.68,29.52,11,4,17,0.08
2012-9-22,76.5,64.6,54.3,59.2,53.8,47.9,96,70,40,29.72,29.62,13,5,17,0.02
2012-9-23,83.5,71.1,53.1,58.7,49.3,38.3,100,57,21,29.66,29.48,12,6,17,0.02
2012-9-24,83.5,83.5,83.5,41.8,41.8,41.8,23,23,23,29.48,29.48,7,7,11,0.02
2012-9-25,83.5,82.7,61.9,53.9,42.2,41.8,74,25,23,29.91,29.48,10,7,14,0.25
2012-9-26,73.4,65.9,59.4,57.2,55.1,53.0,83,69,52,29.91,29.80,17,9,24,0.06
2012-9-27,82.0,66.9,51.8,61.7,56.7,51.8,100,72,40,29.84,29.66,11,4,15,0.07
2012-9-28,93.0,76.9,59.9,60.4,55.1,47.3,93,54,23,29.64,29.43,19,7,24,0.11
2012-9-29,80.6,71.4,61.5,63.5,50.6,30.1,85,54,19,29.73,29.41,23,10,31,0.06
2012-9-30,73.2,61.2,52.9,44.9,32.8,25.6,66,36,18,29.97,29.76,12,6,16,0.00
2012-10-1,70.9,62.0,54.9,60.2,51.9,44.9,79,70,65,30.13,29.98,11,5,16,0.07
2012-10-2,70.3,63.4,58.8,54.8,51.8,44.7,85,68,41,30.21,30.12,14,6,17,0.11
2012-10-3,89.1,69.2,58.8,82.9,63.5,53.3,82,82,82,30.09,29.86,11,5,15,0.12
2012-10-4,91.2,76.0,61.2,85.1,70.1,55.6,82,82,82,29.87,29.68,16,8,22,0.08
2012-10-5,100.0,77.4,62.4,93.7,71.9,56.9,92,83,80,29.78,29.59,15,9,24,0.11
2012-10-6,71.4,66.7,64.2,61.2,59.6,58.0,85,78,65,29.81,29.50,16,9,26,0.09
2012-10-7,69.3,66.1,64.9,63.6,54.7,38.1,82,69,35,29.75,29.45,20,11,28,0.06
2012-10-8,65.1,65.1,65.1,49.1,49.1,49.1,56,56,56,29.76,29.61,12,6,15,0.14
2012-10-9,65.1,65.1,65.1,49.1,49.1,49.1,56,56,56,29.63,29.53,13,6,18,0.02
2012-10-10,80.6,69.3,65.1,63.5,53.0,49.1,57,56,53,29.61,29.46,14,6,19,0.05
2012-10-11,70.7,70.7,70.7,54.3,54.3,54.3,56,56,56,29.46,29.33,12,6,21,0.30
2012-10-12,70.7,70.7,70.7,54.3,54.3,54.3,56,56,56,29.78,29.41,17,10,27,0.27
2012-10-13,70.7,68.6,60.3,54.3,53.3,49.2,74,58,54,29.92,29.72,15,7,19,0.01
2012-10-14,71.1,61.9,54.1,56.6,52.7,48.9,100,74,49,30.02,29.90,15,5,17,0.13
2012-10-15,82.0,65.0,48.6,53.9,42.4,22.9,100,54,20,30.01,29.87,15,6,19,0.01
2012-10-16,95.0,75.0,57.2,43.3,27.9,18.7,26,18,11,29.87,29.66,12,7,18,0.08
2012-10-17,86.7,70.0,64.2,31.9,18.7,14.1,14,14,14,29.87,29.59,19,8,26,0.11
2012-10-18,73.9,67.8,62.2,21.8,16.9,12.5,14,14,14,29.93,29.79,18,10,24,0.00
2012-10-19,93.9,71.3,56.3,37.6,19.7,7.8,14,14,14,29.80,29.57,11,4,13,0.01
2012-10-20,102.0,74.6,62.1,42.9,20.4,12.3,16,13,10,29.70,29.44,20,8,28,0.09
2012-10-21,80.2,70.6,59.9,23.1,15.5,7.2,12,12,12,29.71,29.56,12,6,20,0.00
2012-10-22,73.4,62.5,58.1,50.0,17.4,6.2,74,22,12,29.96,29.65,28,7,38,0.02
2012-10-23,70.2,63.6,59.2,51.1,44.9,37.6,66,51,40,30.05,29.96,0,0,1,0.00
2012-10-24,75.6,64.3,50.0,57.2,50.8,43.5,91,64,33,30.01,29.75,12,2,15,0.09
2012-10-25,95.7,73.4,52.3,55.7,40.5,16.6,96,44,10,29.76,29.42,11,3,17,0.00
2012-10-26,75.0,69.3,64.0,19.0,14.5,10.4,12,12,12,29.57,29.43,14,2,19,0.09
2012-10-27,70.9,68.0,59.2,15.8,13.6,6.6,12,12,12,29.73,29.58,0,0,0,0.00
2012-10-28,70.9,70.9,70.9,15.8,15.8,15.8,12,12,12,29.73,29.73,0,0,0,0.00
2012-10-29,70.9,70.9,70.9,15.8,15.8,15.8,12,12,12,29.73,29.73,0,0,0,0.00
2012-10-30,77.2,67.4,57.9,61.9,57.5,54.0,92,72,47,29.85,29.70,0,0,0,0.01
2012-10-31,84.6,71.9,59.5,62.4,57.9,53.5,94,65,37,29.74,29.63,0,0,0,0.00
2012-11-1,96.6,78.4,59.9,60.8,52.9,39.6,96,53,14,29.64,29.28,7,0,7,0.07
2012-11-2,68.4,65.2,61.7,52.8,50.4,48.6,72,59,50,29.81,29.70,0,0,1,0.01
2012-11-3,73.2,64.7,57.2,57.9,53.0,45.4,85,67,37,29.88,29.78,0,0,0,0.01
2012-11-4,80.2,70.4,61.0,64.3,60.8,57.0,92,73,45,29.86,29.73,0,0,1,0.07
2012-11-5,86.9,74.0,61.5,64.7,62.5,60.3,97,70,41,29.82,29.70,1,0,4,0.00
2012-11-6,88.3,75.5,63.0,64.8,62.8,60.8,97,67,40,29.75,29.61,2,0,7,0.00
2012-11-7,84.0,74.2,68.2,68.8,65.2,62.5,100,75,55,29.67,29.49,0,0,0,0.20
2012-11-8,86.7,74.0,64.6,68.9,65.0,59.4,100,77,40,29.71,29.51,0,0,0,0.06
2012-11-9,81.1,72.2,66.2,69.4,66.9,65.2,99,85,60,29.76,29.61,0,0,0,0.08
2012-11-10,68.9,64.9,61.3,67.1,56.9,50.2,100,76,61,30.02,29.76,0,0,1,0.15
2012-11-11,72.3,66.2,59.7,53.6,49.4,45.1,80,56,42,30.08,29.99,0,0,1,0.00
2012-11-12,79.3,67.6,52.5,58.5,53.9,47.0,97,65,32,30.06,29.80,0,0,1,0.01
2012-11-13,73.9,66.7,59.0,62.9,58.6,54.9,92,76,63,29.92,29.72,4,0,11,0.01
2012-11-14,72.1,67.5,63.3,63.7,61.1,58.4,87,80,71,29.86,29.72,0,0,1,0.02
2012-11-15,80.4,72.5,66.6,68.8,65.4,61.3,92,79,63,29.79,29.54,0,0,0,0.00
2012-11-16,73.2,67.0,62.1,68.0,65.1,60.9,100,94,77,29.66,29.51,10,1,14,0.27
2012-11-17,72.7,66.3,61.5,62.3,54.6,50.3,100,67,46,29.73,29.65,8,0,14,0.11
2012-11-18,78.3,71.0,65.7,63.4,59.7,56.1,77,68,57,29.68,29.45,0,0,0,0.00
2012-11-19,73.4,65.6,59.0,59.6,52.3,47.2,100,64,44,29.82,29.60,1,0,1,0.07
2012-11-20,74.3,67.8,57.9,61.3,56.9,51.0,100,70,45,29.90,29.78,12,0,17,0.14
2012-11-21,80.4,69.6,56.5,63.6,59.9,55.1,100,73,52,29.85,29.57,0,0,0,0.05
2012-11-22,73.0,67.3,63.9,64.0,59.0,56.1,93,75,60,29.83,29.54,0,0,3,0.00
2012-11-23,73.9,67.9,63.9,62.1,58.9,57.2,83,73,60,29.84,29.75,0,0,2,0.01
2012-11-24,82.0,73.7,64.9,68.6,65.2,62.3,96,76,56,29.82,29.65,0,0,1,0.02
2012-11-25,98.2,79.6,66.2,68.0,65.5,60.6,100,67,29,29.70,29.61,0,0,1,0.06
2012-11-26,84.2,75.6,67.5,71.3,69.0,64.7,100,81,61,29.71,29.58,0,0,2,0.12
2012-11-27,93.6,75.5,68.2,71.1,67.8,61.8,100,80,36,29.84,29.61,0,0,2,0.15
2012-11-28,82.4,71.9,65.8,69.8,66.9,63.6,100,85,53,29.79,29.68,0,0,2,0.24
2012-11-29,86.5,76.2,68.2,72.4,69.8,67.9,100,82,56,29.75,29.64,0,0,2,0.08
2012-11-30,96.6,82.5,70.0,75.5,71.7,68.5,97,72,43,29.68,29.54,0,0,0,0.02
2012-12-1,93.0,82.0,74.8,73.3,70.8,68.1,88,70,47,29.70,29.54,1,0,7,0.01
2012-12-2,79.5,74.6,67.8,73.8,69.2,67.1,100,84,72,29.70,29.55,14,2,20,0.07
2012-12-3,78.3,69.0,66.4,69.3,67.2,66.1,100,94,72,29.68,29.45,11,4,14,0.05
2012-12-4,87.8,75.4,66.6,69.0,57.6,39.0,99,61,18,29.51,29.33,0,0,0,0.00
2012-12-5,84.6,70.1,59.9,61.8,48.0,26.7,94,53,15,29.68,29.43,1,0,1,0.00
2012-12-6,77.5,68.1,55.6,57.0,52.8,42.8,93,61,31,29.92,29.66,4,0,14,0.00
2012-12-7,76.5,70.5,64.0,64.0,58.3,54.1,73,65,52,29.96,29.84,2,0,11,0.00
2012-12-8,86.2,77.2,69.4,70.2,66.3,62.0,87,70,47,29.84,29.67,2,0,16,0.06
2012-12-9,90.1,72.5,62.6,68.9,65.3,61.2,100,80,42,29.87,29.62,2,0,25,0.18
2012-12-10,66.9,64.2,62.2,66.5,63.5,61.8,100,98,93,30.01,29.83,0,0,1,0.66
2012-12-11,75.6,67.4,62.2,68.2,64.9,61.8,100,92,74,30.03,29.94,1,0,7,1.07
2012-12-12,80.6,72.6,63.3,66.3,61.1,54.9,100,70,44,30.04,29.96,0,0,2,0.01
2012-12-13,81.9,73.0,61.0,68.5,61.0,54.0,100,69,39,29.97,29.78,0,0,3,0.02
2012-12-14,86.7,75.7,64.0,66.0,63.1,59.2,92,67,40,29.78,29.57,0,0,5,0.00
2012-12-15,85.6,74.6,69.1,71.0,65.1,61.3,92,73,49,29.60,29.45,2,0,8,0.06
2012-12-16,99.0,82.0,68.4,66.6,63.0,52.3,89,57,21,29.49,29.30,0,0,2,0.08
2012-12-17,78.4,70.3,67.6,66.9,61.6,58.2,88,74,60,29.62,29.43,0,0,7,0.00
2012-12-18,81.7,73.7,65.7,70.6,65.8,62.3,96,78,58,29.63,29.53,0,0,2,0.01
2012-12-19,83.3,77.6,70.9,73.8,70.5,67.8,95,79,65,29.65,29.45,0,0,2,0.00
2012-12-20,93.6,79.8,70.0,73.9,68.1,60.1,94,71,34,29.73,29.39,3,0,8,0.26
2012-12-21,75.4,71.7,69.3,67.0,63.2,61.0,91,75,64,29.79,29.71,0,0,1,0.01
2012-12-22,84.2,76.0,71.1,73.4,69.6,65.5,89,81,64,29.77,29.66,0,0,2,0.08
2012-12-23,91.4,80.5,70.7,72.7,70.8,67.9,100,74,48,29.75,29.63,0,0,1,0.07
2012-12-24,94.3,81.1,69.4,73.0,70.4,68.0,97,72,44,29.72,29.49,0,0,2,0.06
2012-12-25,77.5,69.2,64.4,72.6,68.0,64.1,100,96,82,29.72,29.56,9,2,17,0.77
2012-12-26,73.8,68.4,63.7,65.3,60.6,55.1,100,77,61,29.79,29.64,8,0,16,0.11
2012-12-27,80.6,70.6,60.8,62.2,57.6,53.2,85,65,41,29.78,29.65,7,1,11,0.04
2012-12-28,98.2,74.9,61.9,69.7,62.5,54.0,95,70,23,29.74,29.42,22,8,35,0.07
2012-12-29,79.9,72.2,67.3,63.2,59.1,56.2,81,64,45,29.80,29.69,13,7,17,0.00
2012-12-30,79.0,70.2,63.3,62.8,60.4,58.4,90,72,50,29.86,29.77,11,4,16,0.01